| time (UTC) | temp F | wind direction | speed MPH | gust MPH | rain 1hr in | rain 24hr in | rain mn in | humidity % | barometer mb |
| 20260831174511 | 79 | 196 | 0.0 | 1.0 | 0.00 | 0.11 | 0.01 | 63 | 1019.2 |
| 20260831173011 | 79 | 219 | 0.0 | 0.0 | 0.00 | 0.11 | 0.01 | 65 | 1019.2 |
| 20260831171510 | 79 | 207 | 0.0 | 0.0 | 0.00 | 0.11 | 0.01 | 65 | 1019.0 |
| 20260831170007 | 79 | 167 | 0.0 | 0.0 | 0.00 | 0.11 | 0.01 | 64 | 1018.9 |
| 20260831164505 | 78 | 316 | 0.0 | 0.0 | 0.00 | 0.11 | 0.01 | 64 | 1019.2 |
| 20260831163002 | 76 | 236 | 0.0 | 0.0 | 0.00 | 0.11 | 0.01 | 66 | 1019.3 |
| 20260831161501 | 76 | 15 | 0.0 | 2.0 | 0.00 | 0.11 | 0.01 | 62 | 1019.3 |
| 20260831160059 | 76 | 237 | 0.0 | 0.0 | 0.00 | 0.11 | 0.01 | 69 | 1019.5 |
| 20260831154617 | 75 | 205 | 0.0 | 0.0 | 0.00 | 0.11 | 0.01 | 76 | 1019.6 |
| 20260831153051 | 74 | 224 | 0.0 | 0.0 | 0.00 | 0.11 | 0.01 | 78 | 1019.3 |
| 20260831151608 | 74 | 264 | 0.0 | 0.0 | 0.00 | 0.11 | 0.01 | 77 | 1019.5 |
| 20260831150050 | 74 | 235 | 0.0 | 0.0 | 0.01 | 0.11 | 0.01 | 78 | 1019.4 |
| 20260831144545 | 72 | 248 | 0.0 | 0.0 | 0.01 | 0.11 | 0.01 | 82 | 1019.6 |
| 20260831143041 | 71 | 347 | 0.0 | 0.0 | 0.01 | 0.11 | 0.01 | 83 | 1019.6 |
| 20260831141537 | 70 | 59 | 0.0 | 0.0 | 0.01 | 0.11 | 0.01 | 84 | 1019.4 |
| 20260831140036 | 70 | 5 | 0.0 | 0.0 | 0.00 | 0.10 | 0.00 | 85 | 1019.3 |
| 20260831134531 | 69 | 348 | 0.0 | 0.0 | 0.00 | 0.10 | 0.00 | 86 | 1019.2 |
| 20260831133034 | 68 | 108 | 0.0 | 0.0 | 0.00 | 0.10 | 0.00 | 88 | 1019.2 |
| 20260831131529 | 67 | 355 | 0.0 | 0.0 | 0.00 | 0.10 | 0.00 | 91 | 1019.2 |
| 20260831130036 | 67 | 345 | 0.0 | 0.0 | 0.00 | 0.10 | 0.00 | 92 | 1019.2 |
| 20260831124542 | 66 | 355 | 0.0 | 0.0 | 0.00 | 0.10 | 0.00 | 92 | 1019.2 |
| 20260831123025 | 65 | 355 | 0.0 | 0.0 | 0.00 | 0.10 | 0.00 | 92 | 1019.3 |
| 20260831121538 | 65 | 10 | 0.0 | 1.0 | 0.00 | 0.10 | 0.00 | 93 | 1019.2 |
| 20260831120021 | 65 | 38 | 0.0 | 0.0 | 0.00 | 0.10 | 0.00 | 93 | 1019.0 |
| 20260831114519 | 65 | 34 | 0.0 | 0.0 | 0.00 | 0.10 | 0.00 | 93 | 1018.9 |
| 20260831113017 | 64 | 346 | 0.0 | 0.0 | 0.00 | 0.10 | 0.00 | 93 | 1018.9 |
| 20260831111515 | 64 | 9 | 0.0 | 0.0 | 0.00 | 0.10 | 0.00 | 93 | 1018.8 |
| 20260831110020 | 64 | 355 | 0.0 | 0.0 | 0.00 | 0.10 | 0.00 | 93 | 1018.5 |
| 20260831104509 | 64 | 355 | 0.0 | 0.0 | 0.00 | 0.10 | 0.00 | 93 | 1018.4 |
| 20260831103009 | 64 | 355 | 0.0 | 0.0 | 0.00 | 0.10 | 0.00 | 93 | 1018.3 |
| 20260831101505 | 65 | 355 | 0.0 | 0.0 | 0.00 | 0.10 | 0.00 | 93 | 1018.1 |
| 20260831100004 | 65 | 355 | 0.0 | 0.0 | 0.00 | 0.10 | 0.00 | 93 | 1018.1 |
| 20260831094504 | 65 | 355 | 0.0 | 0.0 | 0.00 | 0.10 | 0.00 | 93 | 1018.1 |
| 20260831093000 | 66 | 29 | 0.0 | 0.0 | 0.00 | 0.10 | 0.00 | 93 | 1018.1 |
| 20260831091615 | 66 | 29 | 0.0 | 0.0 | 0.00 | 0.10 | 0.00 | 93 | 1018.2 |
| 20260831084601 | 66 | 29 | 0.0 | 0.0 | 0.00 | 0.10 | 0.00 | 93 | 1017.9 |
| 20260831083059 | 66 | 29 | 0.0 | 0.0 | 0.00 | 0.10 | 0.00 | 93 | 1017.9 |
| 20260831081600 | 66 | 29 | 0.0 | 0.0 | 0.00 | 0.10 | 0.00 | 93 | 1018.0 |
| 20260831080057 | 66 | 29 | 0.0 | 0.0 | 0.00 | 0.10 | 0.00 | 93 | 1017.8 |
| 20260831074555 | 66 | 29 | 0.0 | 0.0 | 0.00 | 0.10 | 0.00 | 93 | 1017.7 |
| 20260831073058 | 66 | 29 | 0.0 | 0.0 | 0.00 | 0.10 | 0.00 | 93 | 1017.8 |
| 20260831071610 | 66 | 29 | 0.0 | 0.0 | 0.00 | 0.10 | 0.00 | 93 | 1017.8 |
| 20260831070054 | 66 | 29 | 0.0 | 1.0 | 0.00 | 0.10 | 0.00 | 92 | 1018.0 |
| 20260831064552 | 66 | 29 | 0.0 | 0.0 | 0.00 | 0.10 | 0.00 | 92 | 1017.9 |
| 20260831063050 | 67 | 29 | 0.0 | 0.0 | 0.00 | 0.10 | 0.00 | 92 | 1017.9 |
| 20260831061549 | 67 | 29 | 0.0 | 0.0 | 0.00 | 0.10 | 0.00 | 92 | 1017.8 |
| 20260831060054 | 67 | 29 | 0.0 | 0.0 | 0.00 | 0.10 | 0.00 | 92 | 1018.0 |
| 20260831054546 | 67 | 29 | 0.0 | 0.0 | 0.00 | 0.10 | 0.00 | 92 | 1017.6 |
| 20260831053051 | 68 | 29 | 0.0 | 0.0 | 0.00 | 0.10 | 0.00 | 92 | 1017.7 |
| 20260831051544 | 68 | 29 | 0.0 | 0.0 | 0.00 | 0.10 | 0.00 | 92 | 1017.6 |
| 20260831050044 | 68 | 29 | 0.0 | 0.0 | 0.00 | 0.10 | 0.00 | 92 | 1017.6 |
| 20260831044548 | 68 | 29 | 0.0 | 0.0 | 0.00 | 0.10 | 0.00 | 92 | 1017.7 |
| 20260831043044 | 68 | 29 | 0.0 | 0.0 | 0.00 | 0.10 | 0.00 | 92 | 1017.4 |
| 20260831041542 | 69 | 29 | 0.0 | 0.0 | 0.00 | 0.10 | 0.00 | 92 | 1017.5 |
| 20260831040037 | 69 | 29 | 0.0 | 0.0 | 0.00 | 0.10 | 0.00 | 92 | 1017.5 |
| 20260831034535 | 69 | 29 | 0.0 | 0.0 | 0.01 | 0.10 | 0.10 | 92 | 1017.5 |
| 20260831033045 | 69 | 29 | 0.0 | 0.0 | 0.01 | 0.10 | 0.10 | 92 | 1017.6 |
| 20260831031536 | 69 | 29 | 0.0 | 0.0 | 0.01 | 0.10 | 0.10 | 91 | 1017.8 |
| 20260831030034 | 70 | 29 | 0.0 | 0.0 | 0.01 | 0.10 | 0.10 | 92 | 1018.1 |
| 20260831024534 | 71 | 28 | 0.0 | 0.0 | 0.01 | 0.09 | 0.09 | 92 | 1018.2 |
| 20260831023037 | 71 | 29 | 0.0 | 0.0 | 0.01 | 0.09 | 0.09 | 92 | 1018.1 |
| 20260831021537 | 71 | 29 | 0.0 | 0.0 | 0.02 | 0.09 | 0.09 | 91 | 1018.1 |
| 20260831020056 | 71 | 29 | 0.0 | 0.0 | 0.03 | 0.09 | 0.09 | 91 | 1018.0 |
| 20260831014531 | 71 | 29 | 0.0 | 0.0 | 0.03 | 0.08 | 0.08 | 91 | 1017.9 |
| 20260831013031 | 72 | 29 | 0.0 | 0.0 | 0.04 | 0.08 | 0.08 | 91 | 1017.9 |
| 20260831011529 | 72 | 29 | 0.0 | 0.0 | 0.04 | 0.07 | 0.07 | 91 | 1017.8 |
| 20260831010029 | 72 | 29 | 0.0 | 0.0 | 0.05 | 0.06 | 0.06 | 90 | 1017.7 |
| 20260831004530 | 72 | 29 | 0.0 | 0.0 | 0.04 | 0.05 | 0.05 | 90 | 1017.7 |
| 20260831003029 | 72 | 27 | 0.0 | 0.0 | 0.04 | 0.04 | 0.04 | 89 | 1017.6 |
| 20260831001529 | 73 | 27 | 0.0 | 0.0 | 0.03 | 0.03 | 0.03 | 88 | 1017.4 |
| 20260831000026 | 73 | 27 | 0.0 | 0.0 | 0.01 | 0.01 | 0.01 | 87 | 1017.2 |
| 20260830234538 | 74 | 27 | 0.0 | 0.0 | 0.00 | 0.00 | 0.00 | 86 | 1017.0 |
| 20260830233027 | 74 | 27 | 0.0 | 0.0 | 0.00 | 0.00 | 0.00 | 85 | 1016.9 |
| 20260830231528 | 74 | 27 | 0.0 | 0.0 | 0.00 | 0.00 | 0.00 | 84 | 1016.8 |
| 20260830230023 | 74 | 27 | 0.0 | 1.0 | 0.00 | 0.00 | 0.00 | 83 | 1016.7 |
| 20260830224523 | 75 | 181 | 0.0 | 0.0 | 0.00 | 0.00 | 0.00 | 82 | 1016.7 |
| 20260830223023 | 75 | 181 | 0.0 | 0.0 | 0.00 | 0.00 | 0.00 | 82 | 1016.7 |
| 20260830221521 | 75 | 182 | 0.0 | 0.0 | 0.00 | 0.00 | 0.00 | 81 | 1016.9 |
| 20260830220020 | 76 | 182 | 0.0 | 0.0 | 0.00 | 0.00 | 0.00 | 80 | 1017.1 |
| 20260830214520 | 76 | 194 | 0.0 | 0.0 | 0.00 | 0.00 | 0.00 | 79 | 1016.9 |
| 20260830213034 | 77 | 161 | 0.0 | 0.0 | 0.00 | 0.00 | 0.00 | 79 | 1016.8 |
| 20260830211524 | 77 | 155 | 0.0 | 0.0 | 0.00 | 0.00 | 0.00 | 79 | 1016.9 |
| 20260830210042 | 77 | 219 | 0.0 | 0.0 | 0.00 | 0.00 | 0.00 | 79 | 1016.8 |
| 20260830204515 | 77 | 300 | 0.0 | 0.0 | 0.00 | 0.00 | 0.00 | 80 | 1017.1 |
| 20260830203020 | 76 | 152 | 0.0 | 0.0 | 0.00 | 0.00 | 0.00 | 80 | 1017.2 |
| 20260830201513 | 76 | 219 | 0.0 | 3.0 | 0.00 | 0.00 | 0.00 | 82 | 1017.3 |
| 20260830200012 | 75 | 254 | 0.0 | 0.0 | 0.00 | 0.00 | 0.00 | 82 | 1017.4 |
| 20260830194511 | 74 | 221 | 0.0 | 0.0 | 0.00 | 0.00 | 0.00 | 81 | 1017.6 |
| 20260830193016 | 74 | 196 | 0.0 | 0.0 | 0.00 | 0.00 | 0.00 | 81 | 1017.6 |
| 20260830191515 | 74 | 202 | 0.0 | 0.0 | 0.00 | 0.00 | 0.00 | 80 | 1018.0 |
| 20260830190004 | 74 | 202 | 0.0 | 0.0 | 0.00 | 0.00 | 0.00 | 79 | 1018.2 |
| 20260830184503 | 75 | 178 | 0.0 | 0.0 | 0.00 | 0.00 | 0.00 | 77 | 1018.5 |
| 20260830183001 | 75 | 173 | 0.0 | 0.0 | 0.00 | 0.00 | 0.00 | 76 | 1018.5 |
| 20260830181603 | 75 | 175 | 0.0 | 0.0 | 0.00 | 0.00 | 0.00 | 74 | 1018.6 |
| 20260830180058 | 76 | 286 | 0.0 | 0.0 | 0.00 | 0.00 | 0.00 | 72 | 1018.8 |